User: anonymous   Login
Location: Unspecified
(0.0000°N, 0.0000°E)
Time: 21:59:00
(UTC+00:00)
Language:

MAST - Orbit

View from above orbital plane
View from above orbital plane
View from above satellite
View from above satellite

Ground track
Ground track

The orbit data is extracted from the following two-line orbital elements,

1 31126U 07012K   18343.76822508 +.00000067 +00000-0 +24808-4 0  9999
2 31126 098.1270 283.7613 0089056 296.6628 062.5471 14.56688932618528
Epoch (UTC): 09 December 2018 18:26:14
Eccentricity: 0.0089056
inclination: 98.1270°
perigee height: 641 km
apogee height: 767 km
right ascension of ascending node: 283.7613°
argument of perigee: 296.6628°
revolutions per day: 14.56688932
mean anomaly at epoch: 62.5471°
orbit number at epoch: 61852

The dashed part of the orbit path shows where the satellite is in the earth's shadow,  

DLR